Weather History for Hickory, NC

Change the Weather History Date:

Wednesday, June 19, 2013

  Actual Average Record
Temperature  
Mean Temperature 72 °F -  
Max Temperature 81 °F 85 °F 96 °F (1952)
Min Temperature 63 °F 65 °F 52 °F (1965)
Cooling Degree Days 6    
Growing Degree Days 22 (Base 50)    
Moisture  
Dew Point 62 °F    
Average Humidity 71    
Maximum Humidity 93    
Minimum Humidity 52    
Precipitation  
Precipitation 0.00 in - - ()
Sea Level Pressure  
Sea Level Pressure 29.98 in    
Wind  
Wind Speed 1 mph (NNW)    
Max Wind Speed 6 mph    
Max Gust Speed -    
Visibility 10 miles    
Events      
Averages and records for this station are not official NWS values.
T = Trace of Precipitation, MM = Missing Value Source: NWS Daily Summary

Daily Weather History Graph

Daily Weather History Graph

Search for Another Location

Airport:

Trip Planner

Search our weather history database for the weather conditions in past years. The results will help you decide how hot, cold, wet, or windy it might be!

Date:

Astronomy

Jun. 19, 2013 Rise Set
Actual Time 6:09 AM EDT 8:44 PM EDT
Civil Twilight 5:39 AM EDT 9:14 PM EDT
Nautical Twilight 5:01 AM EDT 9:51 PM EDT
Astronomical Twilight 4:20 AM EDT 10:33 PM EDT
Moon 4:40 PM EDT (6/19) 2:46 AM EDT (6/19)
Length of Visible Light 15h 35m
Length of Day
14h 34m
Waxing Gibbous, 80% of the Moon is Illuminated
Jun 19
Waxing Gibbous
Jun 23
Full
Jun 30
Last Quarter
Jul 8
New
Jul 15
First Quarter

Hourly Weather History & Observations

Time (EDT) Temp. Heat Index Dew Point Humidity Pressure Visibility Wind Dir Wind Speed Gust Speed Precip Events Conditions
12:53 AM 69.1 °F - 64.9 °F 87% 29.90 in 10.0 mi Calm Calm - N/A   Overcast
1:53 AM 68.0 °F - 63.0 °F 84% 29.89 in 10.0 mi Calm Calm - N/A   Partly Cloudy
2:53 AM 66.0 °F - 63.0 °F 90% 29.88 in 10.0 mi Calm Calm - N/A   Clear
3:53 AM 64.9 °F - 61.0 °F 87% 29.89 in 10.0 mi WNW 3.5 mph - N/A   Clear
4:53 AM 64.9 °F - 61.0 °F 87% 29.90 in 10.0 mi Calm Calm - N/A   Clear
5:53 AM 63.0 °F - 61.0 °F 93% 29.92 in 10.0 mi NW 3.5 mph - N/A   Clear
6:53 AM 64.0 °F - 61.0 °F 90% 29.94 in 10.0 mi NW 4.6 mph - N/A   Clear
7:53 AM 64.9 °F - 62.1 °F 90% 29.96 in 10.0 mi West 4.6 mph - N/A   Clear
8:53 AM 69.1 °F - 61.0 °F 75% 29.98 in 10.0 mi Calm Calm - N/A   Clear
9:53 AM 72.0 °F - 63.0 °F 73% 29.99 in 10.0 mi Calm Calm - N/A   Clear
10:53 AM 75.9 °F - 62.1 °F 62% 29.99 in 10.0 mi Variable 3.5 mph - N/A   Clear
11:53 AM 78.1 °F - 60.1 °F 54% 29.99 in 10.0 mi Calm Calm - N/A   Clear
12:53 PM 79.0 °F - 61.0 °F 54% 30.00 in 10.0 mi Calm Calm - N/A   Mostly Cloudy
1:53 PM 79.0 °F - 60.1 °F 52% 30.00 in 10.0 mi Variable 3.5 mph - N/A   Clear
2:53 PM 79.0 °F - 61.0 °F 54% 30.00 in 10.0 mi Calm Calm - N/A   Partly Cloudy
3:53 PM 79.0 °F - 61.0 °F 54% 29.99 in 10.0 mi Calm Calm - N/A   Partly Cloudy
4:53 PM 79.0 °F - 60.1 °F 52% 29.99 in 10.0 mi Calm Calm - N/A   Clear
5:53 PM 79.0 °F - 60.1 °F 52% 30.00 in 10.0 mi ENE 3.5 mph - N/A   Clear
6:53 PM 80.1 °F 81.1 °F 61.0 °F 52% 30.00 in 10.0 mi Variable 3.5 mph - N/A   Clear
7:53 PM 77.0 °F - 61.0 °F 58% 30.03 in 10.0 mi Calm Calm - N/A   Scattered Clouds
8:53 PM 75.0 °F - 61.0 °F 62% 30.03 in 10.0 mi Calm Calm - N/A   Mostly Cloudy
9:53 PM 72.0 °F - 63.0 °F 73% 30.05 in 10.0 mi North 5.8 mph - 0.00 in   Scattered Clouds
10:53 PM 69.1 °F - 64.0 °F 84% 30.08 in 10.0 mi NNE 4.6 mph - N/A   Clear
11:53 PM 68.0 °F - 64.0 °F 87% 30.09 in 10.0 mi Calm Calm - N/A   Clear